Flag for Germany Weather past 2 weeks in Königs Wusterhausen, Brandenburg, Germany

Now
39 °F

Passing clouds.


Feels Like: 31 °F
Forecast: 36 / 43 °F
Wind: 14 mph from South

Location: Berlin-Schoenefeld

Current Time: Mar 3, 2015 at 10:09:33 PM

Latest Report: Mar 3, 2015 at 9:20 PM


Visibility: N/A

Pressure: 29.89 "Hg

Humidity: 87%

Dew point: 36 °F

Location of Königs WusterhausenLocation

Historic Weather in Königs Wusterhausen — Graph

°F

Königs Wusterhausen temperature yesterday

Maximum temperature yesterday: 45 °F (at 10:20 AM)
Minimum temperature yesterday: 36 °F (at 3:50 AM)
Average temperature yesterday: 40 °F

Past Weeks' High & Low Weather Summary

 TemperatureHumidityPressure
High52 °F (Feb 21, 12:20 PM)100% (Feb 18, 3:20 AM)30.72 "Hg (Feb 18, 3:20 AM)
Low25 °F (Feb 20, 4:20 AM)43% (Feb 27, 1:50 PM)29.39 "Hg (Feb 21, 12:50 PM)
Average37 °F80%29.95 "Hg
* Reported Feb 16 8:20 PM — Mar 3 8:50 PM, Königs Wusterhausen, Weather by CustomWeather, © 2015

Note: Actual official high and low records may vary slightly from our data, if they occured in-between our weather recording intervals... More about our weather records

Advertising

Königs Wusterhausen weather history for previous 24 hours

 ConditionsComfort  
Time TempWeatherWind HumidityBarometerVisibility
8:50 PM
Tue, Mar 3
39 °FPartly cloudy.13 mph87%29.89 "HgN/A
8:20 PM39 °FPartly cloudy.15 mph87%29.92 "HgN/A
7:50 PM39 °FLight rain. Partly cloudy.20 mph87%29.95 "HgN/A
7:20 PM39 °FLight rain. Passing clouds.21 mph87%29.95 "HgN/A
6:50 PM43 °FLight rain. Partly cloudy.17 mph66%29.95 "HgN/A
6:20 PM43 °FLight rain. Passing clouds.10 mph61%29.95 "HgN/A
5:50 PM43 °FClear.10 mph61%29.95 "Hg10 mi
5:20 PM43 °FSunny.10 mph57%29.95 "Hg10 mi
4:50 PM45 °FPartly sunny.12 mph53%29.98 "HgN/A
4:20 PM45 °FBroken clouds.16 mph49%29.98 "HgN/A
3:50 PM45 °FPartly sunny.16 mph53%29.98 "HgN/A
3:20 PM46 °FBroken clouds.21 mph46%29.98 "HgN/A
2:50 PM45 °FBroken clouds.20 mph53%30.01 "HgN/A
2:20 PM46 °FPartly sunny.18 mph53%30.01 "HgN/A
1:50 PM45 °FPartly sunny.21 mph53%30.01 "HgN/A
1:20 PM45 °FScattered clouds.22 mph57%30.01 "HgN/A
12:50 PM45 °FPartly sunny.21 mph53%30.01 "HgN/A
12:20 PM46 °FPartly sunny.21 mph57%30.01 "HgN/A
11:50 AM43 °FPartly sunny.22 mph61%30.01 "HgN/A
11:20 AM43 °FPartly sunny.20 mph61%30.01 "HgN/A
10:50 AM43 °FScattered clouds.21 mph66%29.98 "HgN/A
10:20 AM41 °FScattered clouds.23 mph70%29.98 "HgN/A
9:50 AM41 °FPassing clouds.22 mph70%29.98 "HgN/A
9:20 AM41 °FPassing clouds.22 mph70%29.98 "HgN/A
8:50 AM39 °FPassing clouds.21 mph75%29.95 "HgN/A
8:20 AM37 °FPassing clouds.21 mph81%29.95 "HgN/A
7:50 AM37 °FPassing clouds.20 mph81%29.92 "HgN/A
7:20 AM37 °FPartly sunny.23 mph81%29.89 "HgN/A
6:50 AM37 °FBroken clouds.24 mph81%29.89 "HgN/A
6:20 AM37 °FPassing clouds.23 mph81%29.86 "HgN/A
5:50 AM37 °FLight rain. Passing clouds.22 mph87%29.86 "HgN/A
5:20 AM36 °FLight rain. Passing clouds.21 mph93%29.86 "HgN/A
4:50 AM34 °FRain showers. Passing clouds.22 mph100%29.83 "HgN/A
4:20 AM36 °FSprinkles. Passing clouds.20 mph93%29.83 "HgN/A
3:50 AM36 °FSprinkles. Passing clouds.21 mph93%29.80 "HgN/A
3:20 AM36 °FPassing clouds.16 mph93%29.80 "HgN/A
2:50 AM36 °FPassing clouds.17 mph87%29.80 "HgN/A
2:20 AM34 °FPassing clouds.16 mph93%29.80 "HgN/A
1:50 AM34 °FPassing clouds.14 mph93%29.80 "HgN/A
1:20 AM36 °FPassing clouds.14 mph93%29.77 "HgN/A
12:50 AM36 °FLight rain. Passing clouds.16 mph93%29.77 "HgN/A
12:20 AM36 °FLight rain. Passing clouds.21 mph93%29.74 "HgN/A
11:50 PM
Mon, Mar 2
37 °FSprinkles. Passing clouds.18 mph93%29.74 "HgN/A
11:20 PM39 °FSprinkles. Partly cloudy.18 mph81%29.71 "HgN/A
10:50 PM36 °FPassing clouds.10 mph81%29.68 "HgN/A
10:20 PM37 °FPassing clouds.10 mph75%29.68 "HgN/A
Weather by CustomWeather, © 2015

See weather overviewHow to use our weather pages